Temperature
16 16 16 16 16 16 16 16 16 16 16 16 16 16 16 16 16 16 16 16 16 16 16 16 15 15 15 15 15 15 14 14 14 14 14 14 14 14
15 15 15 15 15 15 15 16 16 16 16 16 16 16 16 16 16 16 15 15 15 15 15 15 15 15 15 15 14 14 14 14 14 14 14 14 14 13
15 15 15 15 15 15 15 15 15 15 15 15 15 15 15 15 15 15 15 15 15 15 15 15 15 15 14 14 14 14 14 14 14 14 13 13 13 13
15 15 15 15 15 15 14 14 15 15 15 15 15 14 14 14 14 14 14 14 14 14 14 14 14 14 14 14 14 14 13 13 13 13 13 13 13 13
14 14 14 14 14 14 14 14 14 14 14 14 14 14 14 14 14 14 14 14 14 14 14 14 14 14 14 13 13 13 13 13 13 13 13 12 12 12
14 14 14 14 14 14 14 14 14 14 14 14 14 14 14 14 14 13 13 13 13 13 13 13 13 13 13 13 13 13 13 13 13 12 12 12 12 12
13 13 13 13 13 13 13 14 14 14 14 14 14 13 13 13 13 13 13 13 13 13 13 12 12 12 12 12 12 12 12 12 12 12 12 12 11 11
13 13 13 13 13 13 13 13 14 14 14 14 14 13 13 13 13 13 13 13 12 12 12 12 12 12 12 12 12 12 12 12 11 11 11 11 11 11
12 13 13 13 13 13 13 13 13 13 14 14 14 13 13 13 13 13 13 13 13 12 12 12 11 12 11 11 11 11 11 11 11 11 11 11 10 10
12 12 12 13 13 13 13 13 13 13 14 14 14 13 13 13 13 13 13 13 12 12 12 11 11 11 11 11 11 10 10 10 10 10 10 10 10 10
12 12 12 12 13 13 13 13 13 13 13 14 14 13 13 13 13 13 13 13 12 12 12 11 11 10 10 10 10 10 10 10 10 10 10 9 9 9
11 12 12 12 13 13 13 13 13 13 13 13 13 13 13 13 13 13 13 12 12 11 11 11 11 11 10 10 9 9 9 9 9 9 9 9 9 8
11 12 12 12 13 13 13 13 13 13 13 13 13 12 12 12 12 12 12 12 12 12 11 11 11 11 11 10 9 9 9 8 8 8 8 8 8 8
11 12 12 12 12 13 13 13 13 13 12 12 12 12 12 12 12 12 12 12 12 12 11 11 11 11 11 10 9 9 8 8 8 8 8 8 8 8
11 11 12 12 12 12 13 13 13 12 12 12 12 12 12 12 12 12 12 12 11 11 11 11 11 11 10 10 10 9 8 8 8 8 7 7 7 7
11 11 12 12 12 12 12 12 12 12 12 12 12 12 11 11 11 11 11 11 11 11 11 11 10 10 10 10 9 9 8 8 8 8 7 7 7 7
11 11 11 12 12 12 12 12 12 12 12 12 12 11 11 11 11 10 10 10 10 10 10 10 10 10 10 9 9 8 8 8 8 7 7 7 7 7
11 11 11 11 11 12 12 12 11 11 11 11 11 11 11 11 10 10 10 10 10 10 9 9 9 9 9 9 9 8 8 8 7 7 7 7 6 7
11 11 11 11 11 11 11 11 11 11 11 11 11 11 11 10 10 10 10 10 9 9 9 9 9 9 8 9 8 8 8 8 8 7 7 7 7 7
10 10 11 11 11 11 11 11 11 11 11 11 11 10 10 10 10 10 10 9 9 9 9 8 8 8 9 9 9 8 8 8 8 8 7 7 7 7
10 10 10 10 10 10 10 10 10 10 10 10 10 10 10 10 10 10 10 9 9 9 9 9 9 9 8 8 8 8 8 8 8 8 8 8 7 7
10 10 10 10 10 10 10 10 10 10 10 10 10 10 10 9 9 9 9 9 9 9 8 8 8 9 8 8 8 8 8 8 8 8 8 7 7 7
10 10 10 10 10 10 10 10 10 10 10 9 9 9 9 9 9 9 9 9 9 8 8 8 8 8 8 7 7 7 7 7 7 7 7 7 7 7
Wind_Speed
7 7 6 5 5 4 3 4 5 4 4 2 1 1 2 5 8 7 8 15 15 14 12 11 10 8 6 5 3 2 1 2 2 3 4 5 6 6
5 7 7 5 5 4 4 3 4 4 4 3 2 1 1 3 6 4 5 11 12 11 10 9 8 7 6 4 3 2 1 1 1 2 3 4 5 6
5 6 6 6 6 5 4 4 3 4 4 2 1 2 3 2 2 4 7 9 8 9 9 8 8 7 5 4 4 3 2 1 1 2 3 3 4 5
4 5 6 6 6 5 5 5 4 4 4 4 2 2 2 2 2 2 5 8 10 10 10 10 10 9 8 7 6 5 5 4 4 3 3 4 5 5
3 5 6 7 6 5 5 5 4 4 3 4 3 2 2 2 3 3 5 6 9 11 12 12 12 12 11 10 9 8 8 7 7 7 6 6 6 7
3 4 5 6 6 6 5 5 5 4 4 4 4 3 3 3 3 3 4 4 5 9 12 13 15 15 14 12 11 10 10 10 10 10 10 10 9 10
4 4 5 6 6 4 4 5 5 5 4 4 4 3 3 3 3 3 5 6 5 5 6 8 11 11 12 12 12 12 12 11 11 11 11 11 11 10
4 5 6 6 7 7 7 6 5 5 5 4 4 4 4 4 4 5 6 6 3 4 7 7 8 8 10 11 13 13 13 13 12 12 12 12 12 12
4 4 5 6 6 6 7 8 6 4 4 5 5 5 5 5 5 5 5 5 5 6 7 6 6 8 9 11 13 13 13 13 13 13 12 12 13 13
5 5 5 5 5 5 5 7 7 7 4 5 6 6 5 4 5 6 8 8 7 5 5 4 4 5 7 9 12 13 13 14 13 13 12 11 10 11
7 7 6 6 6 6 7 8 8 8 12 15 14 12 12 11 8 7 7 8 6 3 3 4 4 4 4 3 8 11 13 13 13 13 13 12 9 7
6 7 10 8 7 5 5 7 8 6 7 8 7 8 8 8 9 6 5 7 5 3 2 4 4 4 4 2 4 7 9 10 11 12 13 14 13 8
5 5 5 8 8 6 6 6 7 6 5 6 6 5 5 5 5 7 6 5 5 3 3 4 3 3 4 4 2 3 5 5 5 6 9 11 13 12
5 4 4 7 9 9 7 7 8 7 5 6 6 6 6 6 6 7 11 12 10 7 5 4 3 3 4 4 3 2 2 4 3 3 4 6 8 10
5 6 6 7 7 7 8 8 6 5 5 6 6 6 5 5 5 6 9 13 14 15 13 11 5 4 5 4 4 3 2 1 3 2 2 2 2 3
4 5 7 8 7 6 5 5 5 5 6 6 6 5 4 4 4 4 5 6 6 7 12 17 14 7 5 5 5 4 3 2 0 1 1 1 4 8
2 3 3 3 4 4 4 4 4 5 5 4 5 5 4 4 3 3 3 5 5 5 4 5 13 15 10 5 4 3 3 2 1 0 1 1 1 8
3 3 4 4 3 3 4 4 4 4 4 4 5 4 4 4 3 2 2 4 6 5 5 4 3 3 3 5 5 3 2 1 1 1 1 0 1 3
3 4 3 3 3 3 3 4 4 3 4 4 4 4 4 4 4 3 3 4 5 5 4 3 2 2 3 2 1 4 2 1 1 1 1 1 1 3
3 3 3 3 3 3 3 3 3 3 3 3 4 3 3 3 3 3 3 4 4 4 3 2 3 2 2 3 4 1 2 2 2 1 2 2 2 1
3 3 3 3 3 4 3 3 3 3 3 3 4 3 3 3 3 4 5 5 3 3 4 3 2 3 0 3 3 2 2 3 3 2 1 1 3 3
3 3 3 3 3 3 3 2 2 3 3 3 3 3 2 3 4 5 5 4 2 3 5 4 3 1 0 1 1 3 4 3 5 5 5 5 4 2
3 3 3 2 2 2 1 1 1 3 3 3 4 3 2 2 2 3 3 3 3 4 5 4 3 2 1 1 0 1 2 4 4 3 5 14 16 15
Wind_Direction
197 193 191 190 186 185 179 171 167 183 210 208 182 115 108 126 155 186 185 192 192 191 192 191 191 190 192 197 199 212 240 265 285 288 297 301 304 306
189 192 189 183 176 169 164 161 159 168 185 187 182 164 140 148 162 167 155 174 182 182 180 179 179 178 179 177 172 176 202 250 284 308 315 313 309 306
187 183 186 177 169 167 162 164 166 160 169 177 174 165 166 151 149 152 143 139 146 156 156 155 152 147 142 135 127 116 100 69 5 338 328 329 329 326
182 168 168 164 158 158 162 167 164 161 163 166 169 151 140 136 140 132 127 129 125 130 131 127 122 115 109 105 100 91 82 69 55 36 20 10 0 355
157 155 155 150 148 151 157 160 160 164 155 152 157 144 140 138 120 112 112 118 123 124 118 110 105 99 95 92 89 83 77 70 64 58 53 50 43 37
98 124 136 144 149 150 158 161 158 153 147 148 146 142 139 138 125 130 120 116 119 120 112 107 98 88 81 79 79 78 75 71 69 68 67 63 59 56
87 96 105 115 122 135 151 159 157 153 150 150 148 137 144 143 151 149 132 114 102 113 110 100 92 80 70 67 72 76 77 76 74 73 71 69 66 63
97 102 109 105 107 111 118 131 143 154 161 158 155 154 163 154 149 142 137 131 114 112 105 92 87 79 69 70 74 79 80 79 76 74 73 72 72 70
85 101 114 112 107 112 109 101 86 88 142 151 148 151 146 156 144 136 137 126 123 133 111 97 90 86 78 74 79 81 82 81 78 75 74 76 77 76
83 78 90 95 97 113 111 90 72 54 78 108 105 98 96 107 124 132 127 112 104 111 113 109 110 100 92 82 81 85 85 83 80 76 71 71 79 85
72 69 74 77 69 87 105 102 95 80 75 90 98 98 91 87 99 111 121 125 121 121 107 110 130 119 112 104 96 94 93 91 86 77 69 60 62 91
71 70 62 59 63 82 118 115 111 110 110 102 94 99 96 90 96 111 129 135 130 123 121 112 149 142 126 135 147 132 110 99 93 83 72 60 56 67
72 63 51 51 61 72 96 112 129 134 125 118 111 97 83 74 75 82 90 118 123 114 143 124 149 149 128 138 141 156 150 148 132 97 81 71 64 63
72 66 61 62 65 67 79 93 108 111 104 97 91 86 81 72 69 71 74 75 82 98 110 117 131 139 127 130 137 122 93 85 101 124 120 92 75 69
71 78 76 79 78 73 71 76 88 99 101 100 96 91 90 90 78 73 69 70 64 64 64 66 85 103 111 127 136 141 125 55 50 63 119 137 131 87
72 74 67 67 76 80 76 73 76 96 109 111 108 101 94 89 95 108 108 98 78 54 54 61 68 80 88 97 115 124 131 148 113 16 28 80 118 111
40 68 70 68 62 63 76 82 83 89 94 103 109 110 108 101 91 90 112 116 111 109 80 60 76 78 74 85 100 110 124 127 156 152 16 338 182 134
44 78 77 76 80 80 85 85 82 88 97 104 111 121 127 127 122 106 99 114 125 128 128 130 114 82 63 41 48 95 105 131 179 230 238 11 296 150
67 81 82 81 81 83 82 88 89 90 99 108 117 123 127 127 127 123 114 111 119 129 141 150 151 154 169 184 345 40 89 93 19 311 264 206 217 197
82 94 91 84 84 87 88 90 92 87 94 109 112 115 118 122 127 131 121 120 127 126 121 98 84 84 118 155 160 176 87 102 82 4 334 334 310 216
85 87 89 88 85 85 83 91 101 102 97 98 101 101 112 119 121 115 113 110 116 140 140 135 161 174 242 80 102 162 206 180 162 161 138 11 337 330
110 101 83 80 88 90 81 73 100 107 104 106 115 105 93 109 126 132 144 158 174 146 132 147 170 159 84 177 208 179 187 216 225 222 218 205 180 216
137 132 130 114 104 117 138 204 167 151 148 136 131 133 128 120 128 140 147 153 146 140 139 156 174 192 208 169 151 177 176 189 199 219 255 240 233 238
Height
1509 1512 1515 1518 1522 1526 1530 1533 1536 1538 1540 1542 1544 1546 1548 1550 1552 1553 1555 1557 1559 1561 1563 1565 1566 1567 1568 1569 1569 1569 1570 1570 1570 1569 1569 1569 1568 1567
1504 1507 1510 1513 1517 1520 1524 1528 1531 1534 1536 1538 1540 1542 1545 1547 1548 1550 1552 1554 1556 1558 1560 1561 1563 1564 1566 1566 1567 1567 1567 1567 1567 1567 1566 1566 1565 1564
1500 1503 1506 1509 1512 1515 1519 1522 1526 1529 1532 1534 1536 1539 1541 1544 1545 1547 1549 1551 1553 1555 1557 1558 1560 1561 1562 1563 1564 1564 1564 1564 1564 1563 1563 1562 1562 1561
1497 1499 1502 1505 1508 1511 1515 1518 1522 1525 1528 1530 1533 1536 1538 1541 1543 1545 1546 1548 1550 1552 1554 1556 1557 1558 1559 1560 1561 1561 1561 1561 1561 1560 1560 1559 1558 1557
1495 1497 1499 1502 1505 1508 1512 1515 1518 1521 1525 1528 1530 1533 1535 1538 1540 1542 1544 1546 1548 1550 1552 1553 1555 1556 1557 1558 1558 1559 1559 1559 1558 1557 1557 1556 1555 1554
1493 1496 1498 1501 1503 1506 1510 1513 1515 1519 1522 1525 1528 1531 1533 1536 1538 1540 1543 1545 1547 1548 1550 1552 1553 1554 1555 1556 1557 1557 1557 1557 1556 1556 1555 1554 1553 1552
1493 1495 1497 1500 1502 1505 1508 1511 1514 1517 1520 1523 1526 1529 1532 1534 1537 1539 1542 1544 1546 1548 1549 1551 1552 1553 1554 1555 1555 1555 1555 1555 1555 1554 1553 1552 1552 1551
1493 1495 1497 1499 1502 1505 1508 1510 1513 1516 1519 1522 1525 1528 1530 1533 1535 1538 1541 1543 1545 1548 1549 1551 1552 1553 1554 1554 1555 1555 1555 1554 1554 1553 1552 1551 1550 1549
1494 1496 1498 1500 1503 1505 1508 1511 1513 1516 1519 1522 1525 1527 1530 1532 1534 1537 1540 1542 1544 1547 1549 1550 1552 1553 1554 1554 1554 1554 1554 1554 1553 1552 1551 1550 1549 1548
1495 1497 1499 1502 1504 1507 1509 1512 1514 1517 1519 1522 1525 1528 1530 1532 1534 1536 1539 1541 1545 1547 1549 1550 1552 1553 1554 1554 1555 1554 1554 1553 1552 1552 1551 1550 1549 1548
1497 1499 1501 1503 1506 1508 1511 1513 1516 1518 1521 1524 1526 1529 1531 1532 1534 1536 1539 1541 1544 1547 1549 1550 1551 1553 1554 1554 1555 1554 1554 1553 1552 1552 1551 1550 1549 1547
1499 1501 1503 1505 1508 1511 1513 1515 1518 1521 1523 1525 1528 1530 1532 1534 1536 1537 1539 1541 1543 1546 1548 1549 1551 1552 1554 1555 1555 1554 1554 1554 1553 1552 1551 1550 1549 1548
1501 1502 1505 1508 1510 1513 1515 1517 1520 1523 1525 1527 1530 1532 1534 1535 1537 1538 1540 1542 1544 1545 1547 1549 1550 1552 1553 1554 1554 1554 1554 1553 1553 1552 1551 1550 1549 1548
1503 1504 1507 1510 1512 1515 1517 1520 1522 1525 1527 1529 1531 1533 1535 1536 1538 1539 1541 1542 1544 1545 1547 1548 1549 1551 1551 1552 1553 1554 1554 1553 1553 1552 1551 1550 1549 1548
1506 1507 1510 1512 1515 1517 1519 1521 1524 1526 1528 1530 1532 1534 1536 1538 1539 1540 1541 1543 1544 1545 1546 1547 1548 1550 1551 1551 1552 1552 1553 1553 1552 1552 1551 1550 1549 1548
1509 1511 1513 1515 1517 1519 1521 1523 1525 1528 1530 1531 1533 1535 1537 1538 1540 1541 1542 1543 1544 1545 1546 1547 1548 1549 1550 1551 1551 1552 1552 1552 1552 1551 1551 1550 1549 1548
1513 1514 1516 1518 1519 1521 1523 1525 1527 1529 1531 1533 1534 1536 1537 1539 1540 1542 1543 1543 1544 1545 1546 1547 1548 1549 1550 1551 1551 1551 1551 1551 1551 1550 1550 1549 1548 1547
1516 1517 1519 1520 1522 1524 1525 1527 1528 1530 1532 1533 1535 1537 1538 1539 1540 1542 1543 1544 1544 1545 1546 1546 1548 1548 1550 1550 1551 1550 1550 1550 1550 1549 1549 1549 1548 1547
1519 1520 1521 1523 1524 1525 1527 1528 1529 1531 1532 1534 1535 1537 1538 1539 1540 1541 1543 1544 1544 1545 1545 1546 1547 1548 1548 1549 1550 1550 1549 1549 1548 1548 1548 1547 1547 1546
1521 1522 1523 1524 1525 1526 1527 1529 1530 1531 1533 1534 1535 1536 1538 1539 1540 1541 1542 1543 1544 1544 1545 1545 1546 1547 1547 1548 1548 1548 1548 1547 1547 1547 1546 1546 1545 1545
1522 1523 1524 1525 1526 1527 1528 1529 1530 1531 1532 1533 1534 1535 1537 1538 1539 1540 1541 1542 1543 1543 1544 1544 1545 1546 1546 1547 1547 1546 1546 1546 1546 1545 1545 1544 1544 1543
1523 1523 1524 1525 1525 1526 1527 1528 1529 1530 1531 1532 1533 1534 1535 1536 1537 1538 1539 1540 1541 1542 1542 1543 1543 1543 1544 1545 1545 1544 1544 1544 1544 1544 1543 1543 1542 1541
1522 1523 1523 1524 1525 1525 1526 1527 1529 1529 1530 1531 1532 1532 1533 1535 1536 1537 1538 1539 1540 1540 1541 1541 1541 1542 1542 1543 1543 1543 1543 1543 1542 1542 1542 1541 1540 1539